GFSGL_sfc_dewp_132.txt.gz
Dewpoint
62 62 62 61 61 60 59 58 58 59 58 57 57 57 55 54 57 58 57 56 56 56 56 55 54 55 53 54 53 51 51 51 50 50 51 51 51 52 52 53 54 53 53
60 60 60 60 59 58 58 58 58 57 58 58 56 55 54 54 54 54 54 54 53 53 53 53 53 51 53 54 53 54 53 51 50 49 49 49 50 50 50 51 50 51 52
58 58 58 58 58 57 57 58 57 56 56 55 55 53 53 53 53 54 51 51 51 51 52 52 52 51 51 53 53 50 49 50 49 48 47 47 47 47 47 48 49 50 51
55 55 56 57 57 57 57 57 57 56 56 54 54 52 51 47 47 47 47 48 48 48 50 51 51 52 52 51 50 49 48 48 46 46 45 45 46 46 47 47 46 48 47
54 55 55 56 56 55 55 55 55 55 53 52 52 51 47 42 40 42 44 44 45 46 48 49 52 52 50 49 47 46 46 45 45 45 46 46 46 46 46 46 45 45 45
51 51 51 52 52 53 53 53 54 52 52 51 51 49 45 39 40 40 41 41 44 46 48 50 50 50 47 47 46 46 45 44 44 45 46 46 45 44 44 43 43 43 42
47 47 47 48 48 50 50 50 51 51 52 51 50 47 42 40 38 38 40 41 45 48 47 47 46 46 42 41 43 44 47 48 48 45 43 43 42 43 42 41 42 44 43
43 43 44 45 47 48 48 49 50 51 50 48 47 45 42 37 37 38 38 44 45 45 46 46 47 44 39 38 40 43 46 46 44 41 43 43 44 42 42 42 42 44 46
41 43 44 44 46 46 47 47 48 48 47 46 46 45 43 37 36 37 37 40 40 41 41 40 39 37 37 38 38 40 42 40 41 43 43 42 41 41 42 42 41 41 40
42 42 44 44 45 46 46 46 46 46 45 43 44 44 42 38 36 35 35 35 35 36 39 41 39 38 37 36 37 37 37 37 37 40 39 38 40 40 40 39 37 37 36
42 42 43 44 44 46 46 46 46 46 45 45 44 45 43 40 34 34 35 32 31 32 36 37 38 38 37 37 37 37 38 36 37 38 38 36 36 35 35 35 35 36 35
42 42 43 44 40 42 45 44 41 41 46 46 46 43 41 35 34 33 34 34 35 30 32 34 36 37 37 37 36 36 36 38 37 36 35 33 32 32 33 33 33 35 37
42 42 42 42 41 40 35 32 27 32 32 32 32 34 34 29 27 32 32 34 34 32 31 33 35 35 37 37 37 37 36 33 33 33 33 30 31 31 32 32 31 33 35
41 42 42 39 38 36 31 27 24 23 24 23 27 28 26 25 25 27 27 29 31 30 32 33 37 36 37 37 33 33 32 32 32 31 30 27 29 30 30 30 30 32 34
42 41 40 39 38 36 32 32 24 24 24 19 24 25 22 23 23 29 30 29 30 30 33 34 30 30 29 29 30 31 31 31 31 31 29 27 28 29 29 30 31 31 33
38 35 35 34 36 33 30 26 31 30 29 29 29 27 24 27 30 32 32 32 32 32 30 29 28 27 26 27 27 28 29 31 31 30 29 30 31 31 30 30 31 33 34
39 38 32 32 31 31 34 32 27 26 28 29 29 29 28 27 30 31 31 32 31 30 28 27 26 27 26 28 27 28 28 30 30 30 30 32 32 31 30 31 33 33 33
36 35 31 29 28 26 29 29 28 29 28 27 29 30 29 30 31 31 31 31 28 28 26 26 25 26 26 26 26 26 27 29 28 29 31 33 33 32 31 32 33 33 33
30 29 29 27 25 27 27 27 26 27 27 26 21 27 28 31 31 32 31 28 27 26 26 25 26 26 26 26 25 24 26 28 28 29 31 33 33 32 32 33 33 32 33
28 30 30 27 25 25 25 24 24 26 27 26 23 22 24 28 27 28 28 28 26 26 26 26 25 25 25 26 24 23 25 26 26 27 30 32 32 33 34 34 33 33 34
25 26 29 24 23 22 23 24 24 23 23 23 25 23 28 26 24 26 26 25 25 25 26 26 23 23 23 26 24 22 23 24 25 28 30 31 31 33 36 35 33 34 34
24 21 22 21 22 21 24 23 22 21 20 20 22 22 27 23 23 25 26 26 24 25 25 25 24 24 24 25 24 21 22 22 24 26 29 29 32 33 34 33 34 33 33
22 21 21 21 22 25 25 21 20 20 19 20 20 20 20 22 23 24 25 26 26 26 24 25 25 23 24 27 23 19 20 22 26 27 27 29 31 33 33 32 34 33 33
22 22 20 20 19 19 20 20 19 20 17 17 21 21 23 23 23 25 24 25 25 25 24 24 24 22 24 25 23 19 20 24 26 26 27 28 30 31 31 30 32 31 33
23 23 21 23 22 22 21 20 19 19 18 19 21 20 21 22 22 24 24 23 23 24 23 23 24 22 22 22 20 19 23 26 26 26 26 27 31 30 30 30 30 31 32
26 28 28 29 27 26 25 24 23 21 21 21 21 22 23 21 21 23 22 22 20 20 21 22 22 22 22 22 22 24 25 26 25 26 26 28 28 27 28 29 29 30 31

GFSGL_sfc_dewp_135.txt.gz
Dewpoint
62 61 61 60 59 57 56 56 56 56 55 54 54 54 53 53 52 52 52 52 51 51 51 51 50 50 50 51 51 51 52 53 49 48 48 49 48 48 47 48 49 49 48
60 59 58 57 56 55 55 55 54 53 54 52 51 50 51 52 50 49 48 48 48 48 50 49 50 50 50 50 52 52 51 49 49 47 47 46 47 47 47 47 47 48 47
57 57 56 56 55 55 55 54 52 51 51 51 51 49 47 46 46 46 46 45 45 46 46 48 49 51 50 51 51 49 48 48 47 46 45 45 46 47 47 47 47 48 47
55 55 55 55 55 54 54 54 54 53 51 50 45 43 42 41 41 41 42 43 43 43 45 47 49 51 49 47 47 46 45 44 44 45 45 45 46 46 46 44 43 43 44
54 54 54 54 53 52 52 52 51 50 50 49 43 41 39 38 39 40 39 39 41 42 45 47 50 50 48 46 44 43 42 42 43 43 44 45 43 42 41 42 41 42 43
52 51 51 51 51 49 50 50 50 50 49 47 43 40 38 37 39 40 41 39 41 43 46 47 47 45 43 42 43 43 44 44 45 44 42 40 40 41 42 40 40 41 40
48 48 48 48 48 48 48 49 49 49 48 46 42 38 36 36 38 38 41 39 43 43 44 45 46 41 38 37 38 41 44 47 45 40 38 39 40 39 40 39 39 40 40
44 46 46 46 46 46 47 47 47 46 46 44 43 39 36 35 37 37 39 38 39 39 40 41 40 37 35 36 36 38 39 40 39 39 41 40 37 38 38 37 37 38 38
43 45 45 45 45 45 45 45 45 44 44 43 43 40 35 33 36 36 36 34 33 35 38 40 38 36 37 37 34 35 36 37 39 40 41 41 39 39 39 35 34 34 33
43 43 44 44 44 43 43 43 44 43 43 43 42 40 37 32 35 35 34 32 29 31 36 38 41 39 38 37 36 34 34 35 34 35 36 38 36 33 37 33 33 33 33
42 42 42 43 43 43 43 43 42 42 41 41 41 40 36 32 31 34 35 31 32 30 32 34 34 37 37 36 37 35 34 36 36 35 36 34 29 30 31 31 31 32 32
40 41 42 40 31 28 27 26 26 32 34 37 41 39 33 29 32 32 33 34 35 31 29 31 32 35 36 36 37 36 36 34 32 29 32 28 28 29 30 30 31 31 33
39 39 38 31 26 24 24 23 23 24 25 27 26 25 24 25 25 30 31 32 33 31 31 34 37 36 36 36 36 34 34 31 29 29 30 28 30 31 31 31 31 31 32
40 35 33 33 29 25 23 23 22 22 22 24 23 22 23 23 24 24 27 29 31 30 32 33 34 34 34 33 32 32 30 30 29 28 30 29 31 32 31 31 31 32 33
38 34 35 32 29 29 29 24 21 25 25 23 25 21 22 22 22 30 32 31 31 31 31 29 27 28 27 27 27 28 29 29 27 27 28 29 31 33 31 32 32 34 34
34 37 36 31 29 27 24 24 31 30 30 29 30 27 23 29 31 32 33 33 32 33 29 28 27 27 27 26 25 25 28 28 26 26 27 29 32 33 32 33 34 34 34
34 32 34 34 32 29 27 25 22 24 30 31 30 30 31 30 31 31 32 33 32 30 27 26 26 27 26 27 24 24 26 26 25 26 27 29 32 32 33 34 34 33 33
29 34 30 30 28 30 32 31 28 25 25 26 29 30 30 32 31 31 32 31 27 28 26 26 26 25 26 25 23 23 25 24 23 25 27 29 31 31 32 34 34 33 33
28 27 26 26 27 28 26 26 27 29 24 21 21 26 28 31 31 32 32 27 27 25 26 27 26 25 26 24 22 21 22 23 23 24 26 29 30 31 32 35 34 33 33
28 33 31 27 27 26 26 25 26 28 25 22 21 20 22 27 27 27 27 27 27 26 26 26 25 25 25 22 19 18 20 20 21 23 25 28 28 30 32 33 33 34 33
27 26 30 27 26 25 25 24 23 24 25 23 20 23 28 25 25 25 26 25 25 25 25 25 23 23 23 21 18 17 17 17 21 24 26 26 27 29 32 32 32 34 34
26 25 25 23 23 23 22 23 22 22 22 22 22 23 27 24 25 25 25 26 25 25 25 25 24 23 23 21 20 18 17 17 22 24 25 25 26 29 31 29 31 31 32
26 26 25 24 24 26 23 20 20 21 21 22 22 22 23 23 24 24 25 25 25 25 24 26 23 22 23 23 21 19 18 20 24 25 24 25 26 28 29 28 29 30 31
26 24 23 23 21 22 22 20 20 22 21 21 22 23 23 23 23 23 23 24 24 24 23 24 24 23 22 22 22 21 21 24 24 24 25 25 26 27 27 26 28 28 30
29 28 27 27 26 25 24 23 22 23 22 23 22 23 23 22 22 23 22 23 23 22 22 24 24 23 23 23 22 22 24 26 25 25 25 25 26 26 26 25 27 27 29
30 31 30 30 29 28 27 26 25 25 24 24 23 24 23 21 22 22 22 22 21 21 21 23 24 23 23 23 24 25 25 25 25 25 25 25 24 24 25 25 26 26 28

GFSGL_sfc_dewp_138.txt.gz
Dewpoint
63 63 62 61 61 60 59 58 55 55 54 54 53 53 52 51 50 49 48 48 47 48 48 48 49 49 49 49 50 51 51 51 47 46 47 47 46 46 47 47 49 48 48
61 59 58 58 57 57 55 54 53 53 52 51 50 48 48 46 46 46 45 45 44 44 45 46 47 50 48 49 50 50 49 48 47 45 45 45 45 46 47 45 47 44 45
58 56 55 55 54 53 53 53 51 51 48 46 44 43 42 43 42 43 43 43 42 43 44 45 46 48 46 46 46 46 46 44 44 43 44 45 46 47 43 43 43 43 43
55 54 54 53 53 52 52 52 51 47 43 42 41 41 40 40 40 40 39 40 41 43 44 46 49 47 45 44 44 43 42 41 42 43 44 44 44 42 42 41 41 41 41
54 53 54 52 51 50 50 50 50 45 43 41 40 38 37 37 38 40 40 39 41 43 46 47 49 47 45 44 42 41 41 42 44 44 42 40 39 38 38 39 40 40 39
53 51 50 50 49 49 49 49 48 46 42 40 38 37 36 35 39 42 41 40 42 43 44 45 46 41 39 40 41 42 43 45 40 37 38 38 37 36 35 36 36 35 35
49 48 48 48 48 48 48 48 47 44 41 39 37 35 34 34 38 40 40 38 38 39 40 41 39 37 37 36 37 39 40 43 44 38 37 39 38 37 36 33 33 33 34
47 46 46 46 46 46 46 46 45 44 43 40 37 34 32 33 37 38 36 34 34 36 39 39 38 38 36 37 35 35 35 36 37 37 37 37 38 38 37 34 34 33 33
45 44 44 44 44 44 44 44 44 44 43 41 37 32 29 31 36 36 33 31 30 32 36 39 40 39 39 38 35 35 34 34 37 40 40 39 39 39 35 31 30 30 30
44 43 43 43 43 43 43 43 43 43 42 40 36 33 30 28 35 35 34 31 30 30 31 34 37 37 37 36 35 35 32 32 34 33 31 35 33 32 33 31 30 30 30
42 42 42 41 36 31 29 32 41 41 41 38 35 33 29 29 28 34 34 29 32 31 30 30 31 36 36 37 37 34 34 34 33 28 31 30 30 31 32 32 31 31 31
42 33 28 27 25 25 25 27 28 34 39 35 33 27 26 24 30 31 33 34 34 30 29 31 33 36 35 35 32 34 34 33 28 27 29 29 29 30 32 33 34 34 33
31 27 22 22 23 23 22 23 25 27 25 23 23 23 23 24 24 30 32 34 35 31 33 35 34 33 33 32 34 34 33 27 25 26 27 28 30 31 33 33 34 34 35
30 26 23 21 20 19 20 21 23 24 22 21 22 22 22 23 23 27 29 29 32 30 31 30 33 33 33 32 29 29 27 26 25 25 26 28 30 32 32 33 34 35 34
32 31 28 25 22 23 26 24 25 27 25 22 21 21 22 22 23 32 32 30 30 31 30 28 28 27 27 24 24 26 25 24 24 25 26 27 28 31 31 34 35 34 34
32 29 27 26 24 22 22 22 29 31 31 30 30 27 25 28 33 34 33 32 32 32 27 26 26 27 25 23 21 23 23 23 23 24 25 26 27 30 30 32 35 34 34
35 30 29 27 23 23 22 21 20 23 30 30 30 31 32 32 32 33 32 31 31 29 26 26 26 27 25 23 20 21 20 21 22 23 25 26 27 28 30 31 33 32 33
34 36 32 31 29 27 26 23 23 23 23 22 27 30 31 32 32 32 31 30 26 27 27 26 25 26 24 21 17 18 18 19 20 22 24 27 28 27 29 30 31 32 33
26 27 28 28 29 30 31 29 28 26 21 20 21 26 29 31 31 31 31 27 26 25 26 25 26 26 23 19 16 15 16 18 20 23 24 26 27 27 28 30 30 30 32
31 32 29 26 26 26 27 28 26 22 21 21 21 21 24 26 25 25 26 26 25 25 26 25 25 24 22 19 17 15 15 16 20 23 25 25 26 27 28 28 28 30 31
27 28 30 26 25 25 24 25 25 24 21 21 21 25 27 24 24 24 24 25 24 24 25 24 23 23 21 19 18 16 15 17 21 24 25 25 26 26 28 28 28 29 30
25 23 25 23 22 21 22 23 23 23 23 22 22 25 27 24 23 23 23 24 24 23 25 23 24 23 22 21 20 18 17 19 22 23 24 25 24 26 27 26 26 28 29
26 25 23 24 24 25 22 21 22 22 22 23 22 22 23 23 22 22 23 23 23 23 24 24 22 21 22 22 21 20 20 22 23 24 24 24 24 25 25 25 25 26 27
26 25 24 24 22 21 21 21 21 23 21 22 23 22 22 23 22 21 22 22 22 22 23 24 22 22 22 22 22 21 23 24 24 24 24 24 24 24 24 24 25 25 26
27 27 26 26 25 24 23 24 23 23 22 23 23 22 21 22 21 21 21 21 21 21 22 24 23 23 23 23 22 23 25 25 24 25 24 23 23 23 24 23 24 25 25
30 29 28 28 27 26 25 25 25 24 23 24 24 23 21 22 21 21 21 21 21 21 21 22 23 23 23 24 24 25 25 24 24 25 24 22 22 22 23 23 23 24 24

GFSGL_sfc_dewp_141.txt.gz
Dewpoint
65 63 63 62 62 61 60 58 56 54 53 52 51 49 48 47 46 45 45 44 44 44 44 46 46 47 48 48 49 48 49 50 47 45 46 46 45 45 46 47 44 47 45
62 61 61 61 60 58 57 55 52 50 49 48 46 45 44 43 43 43 43 42 42 42 43 44 45 49 46 46 46 45 46 46 45 42 43 45 45 46 45 41 43 43 44
60 59 59 59 57 55 53 51 47 45 44 43 42 41 41 41 41 40 40 41 42 43 44 45 46 46 43 43 43 43 43 42 42 43 43 44 45 43 39 39 38 39 41
58 57 56 55 54 52 50 47 45 42 41 40 39 38 38 39 40 41 40 41 42 44 46 47 47 45 43 42 42 41 41 41 43 44 43 41 40 38 38 35 34 35 35
55 53 52 52 51 50 47 45 43 41 40 39 37 37 36 37 41 42 40 41 42 42 44 46 45 43 42 41 40 39 41 42 43 36 36 37 37 37 36 36 34 32 33
52 51 51 50 50 48 46 43 41 40 38 37 35 34 34 36 40 41 40 38 39 40 41 40 42 39 38 39 39 40 39 38 39 38 36 34 34 37 37 37 33 31 31
50 50 49 49 48 47 45 43 40 39 37 35 33 32 33 35 38 38 36 34 36 37 39 39 38 36 38 37 37 38 37 40 40 36 34 34 34 36 37 33 30 31 31
48 48 47 47 47 46 44 43 41 39 36 32 30 29 30 34 36 37 35 30 32 35 38 40 40 39 38 37 36 35 34 34 34 34 35 35 36 35 34 31 31 30 31
45 45 45 45 45 45 44 43 42 40 36 31 29 28 27 29 36 36 31 31 30 30 32 34 36 35 37 38 35 34 31 28 34 35 35 37 37 36 35 33 31 30 30
43 44 44 44 44 43 43 43 41 39 34 30 27 28 30 26 33 35 32 30 29 30 30 31 36 36 36 36 32 31 26 27 29 27 28 31 32 32 35 34 32 32 31
43 41 37 35 36 39 41 42 41 38 34 31 28 26 24 27 28 35 35 31 31 29 30 30 31 36 35 34 34 31 30 29 27 26 27 28 29 31 32 33 33 35 33
30 27 26 27 29 34 34 38 39 32 31 26 22 22 23 24 32 34 35 36 33 29 30 31 30 33 33 34 31 33 31 28 25 25 25 26 27 29 31 32 33 36 36
24 24 23 23 24 27 29 30 27 24 23 22 22 22 23 24 26 32 34 35 36 30 31 34 34 33 30 28 31 31 27 24 24 24 24 25 27 29 30 32 33 35 36
20 20 20 20 22 23 24 23 22 22 22 21 22 22 23 24 27 29 29 29 31 29 29 30 32 31 29 25 24 24 23 23 24 23 24 25 27 27 29 30 32 34 33
21 20 20 22 23 25 26 25 24 25 23 21 21 21 23 25 27 33 31 29 28 30 28 27 27 26 22 18 19 20 20 21 22 23 24 25 25 25 27 29 32 32 32
22 21 21 22 22 23 24 24 31 31 32 31 30 28 25 29 34 33 32 32 32 31 27 26 26 24 21 16 16 16 17 19 20 22 23 24 25 25 25 28 30 31 31
25 24 23 22 21 22 22 21 20 24 32 33 32 33 33 33 32 32 32 31 31 28 25 26 24 23 20 18 16 15 15 17 20 22 23 24 25 25 25 27 28 29 30
29 30 24 23 23 22 22 22 22 22 21 22 28 32 32 32 32 32 31 29 26 26 25 26 23 22 20 18 16 14 15 16 20 22 23 25 25 25 25 26 27 28 29
31 30 29 28 26 26 25 26 24 21 21 22 24 27 29 31 30 30 30 25 25 25 25 25 23 21 20 18 16 14 15 17 20 22 24 25 25 25 25 25 26 27 29
30 32 31 29 30 29 28 25 22 22 22 22 23 22 24 24 23 23 24 24 24 24 24 24 22 21 20 19 17 16 16 17 20 22 23 24 25 24 25 25 26 26 27
28 27 29 26 27 28 27 23 22 22 22 23 23 25 25 22 21 22 22 22 22 23 23 23 22 21 20 20 18 17 18 19 21 22 23 24 24 23 25 25 25 26 27
25 24 24 23 23 24 24 25 24 23 22 23 23 25 26 22 21 21 22 22 22 23 24 23 21 21 21 21 20 19 20 20 21 22 22 23 23 24 24 24 24 25 26
25 24 23 23 23 25 23 22 22 22 22 22 22 22 21 21 21 21 21 21 22 23 23 22 21 21 21 22 22 21 21 22 23 23 22 23 23 23 23 23 24 24 24
25 25 22 22 22 22 21 21 22 23 22 21 21 22 21 21 20 20 21 21 22 22 23 23 22 22 22 22 22 22 23 23 23 23 24 23 22 22 22 23 23 23 24
25 24 23 23 23 23 23 22 22 22 22 22 21 21 21 20 20 21 21 21 21 21 22 22 23 23 23 23 23 23 24 23 23 24 24 22 22 21 21 22 23 23 23
27 26 25 25 24 24 24 23 23 23 23 23 23 21 21 20 20 21 21 21 21 20 20 20 20 20 23 24 24 24 24 23 23 24 23 22 22 20 21 21 22 23 23

GFSGL_sfc_dewp_147.txt.gz
Dewpoint
67 65 64 64 64 64 64 62 61 57 55 53 52 51 50 51 52 51 51 49 50 51 51 51 51 52 48 47 46 45 43 43 41 42 43 47 50 48 47 46 43 43 40
64 64 64 64 63 62 61 59 57 52 52 50 49 48 47 47 49 49 48 49 50 50 50 49 48 46 48 47 43 46 44 45 44 44 45 45 45 45 43 42 40 39 41
63 62 62 61 60 59 57 54 50 51 49 48 48 47 46 47 47 48 48 49 49 50 48 46 46 46 46 44 45 43 41 40 41 39 39 39 38 35 36 41 42 43 39
62 60 58 56 56 56 54 48 49 48 47 46 46 46 45 45 46 47 47 47 47 48 47 47 45 43 43 43 41 42 40 39 38 36 34 29 26 32 35 37 37 39 38
59 56 52 51 51 49 46 45 44 44 44 43 43 43 43 43 41 45 45 46 46 46 46 43 42 42 41 41 37 39 38 32 29 26 25 23 25 29 34 36 36 37 37
53 50 50 48 46 45 44 42 42 41 41 40 40 40 39 36 41 42 45 45 45 43 41 41 39 38 38 38 38 37 34 32 30 28 25 27 32 33 35 36 36 35 33
50 49 47 46 45 43 40 39 39 40 39 38 37 38 39 38 39 40 42 41 40 40 40 38 33 33 37 34 36 35 32 31 32 33 31 31 34 37 36 36 36 35 34
48 47 47 44 43 41 39 37 37 36 35 35 36 38 37 35 37 37 38 39 38 39 38 37 36 35 34 32 30 29 30 31 32 29 32 32 33 34 35 35 35 34 34
47 46 45 44 42 39 35 35 33 32 32 33 34 36 37 36 36 36 36 35 35 35 34 34 33 31 34 34 29 29 29 29 29 32 32 32 33 34 33 33 31 31 31
47 46 44 42 40 36 34 33 32 31 32 31 34 37 37 35 37 36 34 30 32 27 30 29 30 29 32 32 30 27 26 27 28 28 28 30 31 32 35 35 32 31 31
46 45 43 40 37 34 34 31 31 32 33 34 34 35 36 36 36 36 36 30 27 25 22 19 19 28 30 30 29 25 25 27 26 25 24 24 26 27 28 32 33 34 33
46 43 42 39 34 31 32 30 32 32 32 32 31 30 32 34 36 36 35 35 34 28 24 21 21 28 28 27 23 26 28 26 22 21 22 23 23 24 26 29 34 34 35
44 42 41 37 34 30 29 29 28 30 28 27 25 26 28 28 29 35 35 34 34 27 24 26 28 26 25 23 26 25 25 21 21 21 21 22 23 25 28 29 32 35 35
41 41 39 36 32 29 25 25 25 26 25 25 25 26 28 28 28 28 28 29 30 27 27 24 25 25 25 23 19 18 17 20 21 21 22 23 23 24 24 25 26 29 30
38 37 36 32 29 27 27 27 27 30 28 26 26 26 27 27 27 31 29 26 25 26 26 22 19 17 15 15 15 16 17 18 19 20 21 21 21 24 23 26 25 26 28
36 35 32 27 25 25 26 28 34 34 33 32 33 29 28 32 33 32 32 31 30 30 22 19 18 16 14 13 14 14 16 18 19 19 20 21 23 25 24 24 24 25 27
33 31 26 25 24 26 27 26 27 32 35 34 34 34 33 33 32 31 30 30 29 26 20 19 17 16 15 14 14 14 15 17 20 18 19 22 25 26 25 24 23 24 25
28 29 24 23 24 25 26 26 25 25 25 26 31 30 32 32 31 31 31 28 23 23 19 19 18 16 16 14 14 15 16 17 18 19 22 23 29 26 27 24 23 25 26
24 24 26 25 24 26 26 26 25 24 24 24 23 26 28 30 29 30 28 23 21 20 19 18 19 17 16 14 14 14 17 19 19 21 25 27 30 27 26 23 25 26 26
27 30 27 25 25 25 25 24 24 25 24 22 21 21 22 23 21 21 22 22 21 20 19 18 18 17 15 14 14 14 15 18 18 20 25 30 30 28 24 25 26 26 25
25 26 28 24 24 24 25 25 25 24 23 22 21 22 27 20 19 20 20 20 20 19 20 19 17 16 14 16 15 14 14 16 19 22 26 31 31 30 24 26 29 26 25
26 24 24 23 23 23 25 25 24 23 22 21 21 20 27 19 19 19 20 21 21 21 21 20 17 16 16 16 17 16 15 15 20 21 24 29 33 29 27 25 24 24 24
29 27 24 23 24 27 25 24 23 23 22 21 20 19 19 20 19 20 21 21 22 21 21 20 17 14 17 18 19 17 16 18 23 21 23 26 29 27 29 28 22 21 22
27 28 26 25 24 23 24 23 23 23 21 20 21 20 21 21 21 22 21 22 21 21 21 20 17 16 18 18 19 17 17 21 22 21 22 22 24 22 21 21 20 21 21
24 26 26 26 25 23 23 22 21 21 21 21 21 21 21 22 22 22 23 23 22 21 21 20 17 17 18 19 20 20 23 25 24 25 22 20 21 21 22 19 19 21 21
26 26 26 26 24 23 23 22 22 22 21 22 22 22 23 22 22 23 23 23 21 20 20 20 17 18 19 18 21 25 25 25 24 25 24 20 20 19 21 20 20 20 22